Change the Weather History Date:

Monday, November 18, 2013

  Actual Average Record
Temperature  
Mean Temperature 66 °F -  
Max Temperature 77 °F 63 °F 82 °F (1964)
Min Temperature 55 °F 39 °F 23 °F (1937)
Cooling Degree Days 1    
Growing Degree Days 16 (Base 50)    
Moisture  
Dew Point 50 °F    
Average Humidity 66    
Maximum Humidity 94    
Minimum Humidity 20    
Precipitation  
Precipitation 0.01 in - - ()
Sea Level Pressure  
Sea Level Pressure 29.92 in    
Wind  
Wind Speed 3 mph (West)    
Max Wind Speed 15 mph    
Max Gust Speed 21 mph    
Visibility 7 miles    
Events Rain    
Averages and records for this station are not official NWS values.
T = Trace of Precipitation, MM = Missing Value Source: NWS Daily Summary

Daily Weather History Graph

Daily Weather History Graph

Search for Another Location

Airport or City:

Trip Planner

Search our weather history database for the weather conditions in past years. The results will help you decide how hot, cold, wet, or windy it might be!

Date:

Astronomy

Nov. 18, 2013 Rise Set
Actual Time 7:08 AM EST 5:24 PM EST
Civil Twilight 6:41 AM EST 5:51 PM EST
Nautical Twilight 6:10 AM EST 6:22 PM EST
Astronomical Twilight 5:40 AM EST 6:52 PM EST
Moon 6:26 PM EST (11/18) 7:55 AM EST (11/18)
Length of Visible Light 11h 10m
Length of Day
10h 16m
Full, 99% of the Moon is Illuminated
Nov 18
Full
Nov 25
Last Quarter
Dec 2
New
Dec 9
First Quarter
Dec 17
Full

Hourly Weather History & Observations

Time (EST) Temp. Dew Point Humidity Pressure Visibility Wind Dir Wind Speed Gust Speed Precip Events Conditions
12:03 AM 62.6 °F 57.2 °F 82% 29.94 in 4.0 mi Calm Calm - 0.00 in Rain Light Rain
12:16 AM 62.6 °F 57.2 °F 82% 29.93 in 1.8 mi Calm Calm - 0.01 in   Overcast
12:44 AM 62.6 °F 57.2 °F 82% 29.94 in 3.0 mi Calm Calm - 0.01 in   Overcast
12:52 AM 62.6 °F 57.2 °F 82% 29.94 in 4.0 mi Calm Calm - 0.01 in Rain Light Rain
12:54 AM 62.1 °F 57.9 °F 86% 29.92 in 4.0 mi Calm Calm - 0.01 in Rain Light Rain
1:09 AM 62.6 °F 57.2 °F 82% 29.92 in 1.8 mi South 3.5 mph - 0.00 in   Overcast
1:19 AM 62.6 °F 57.2 °F 82% 29.92 in 3.0 mi South 3.5 mph - 0.00 in   Overcast
1:54 AM 62.1 °F 57.9 °F 86% 29.88 in 10.0 mi South 3.5 mph - 0.00 in   Overcast
2:06 AM 62.6 °F 57.2 °F 82% 29.90 in 9.0 mi Calm Calm - N/A   Overcast
2:32 AM 62.6 °F 59.0 °F 88% 29.90 in 2.5 mi Calm Calm - N/A   Overcast
2:44 AM 62.6 °F 59.0 °F 88% 29.90 in 1.5 mi SW 3.5 mph - N/A   Overcast
2:54 AM 63.0 °F 59.0 °F 87% 29.87 in 2.5 mi Variable 5.8 mph - N/A   Overcast
3:02 AM 62.6 °F 59.0 °F 88% 29.88 in 3.0 mi SSW 4.6 mph - N/A   Overcast
3:11 AM 62.6 °F 59.0 °F 88% 29.89 in 1.8 mi Variable 3.5 mph - N/A   Overcast
3:47 AM 62.6 °F 60.8 °F 94% 29.89 in 3.0 mi WSW 5.8 mph 16.1 mph 0.00 in Rain Light Rain
3:54 AM 63.0 °F 60.1 °F 90% 29.88 in 7.0 mi SW 6.9 mph - 0.00 in   Mostly Cloudy
4:01 AM 62.6 °F 60.8 °F 94% 29.89 in 7.0 mi SW 4.6 mph - N/A   Scattered Clouds
4:54 AM 63.0 °F 59.0 °F 87% 29.89 in 9.0 mi NW 4.6 mph - N/A   Clear
5:54 AM 63.0 °F 57.0 °F 81% 29.91 in 10.0 mi Calm Calm - N/A   Clear
6:54 AM 61.0 °F 54.0 °F 78% 29.91 in 10.0 mi West 3.5 mph - N/A   Clear
7:54 AM 61.0 °F 57.0 °F 87% 29.93 in 10.0 mi Calm Calm - N/A   Overcast
8:16 AM 60.8 °F 57.2 °F 88% 29.94 in 2.5 mi Calm Calm - N/A   Overcast
8:30 AM 60.8 °F 57.2 °F 88% 29.95 in 3.0 mi Calm Calm - N/A   Mostly Cloudy
8:37 AM 60.8 °F 57.2 °F 88% 29.95 in 2.0 mi Calm Calm - N/A   Mostly Cloudy
8:47 AM 62.6 °F 57.2 °F 82% 29.95 in 5.0 mi Calm Calm - N/A   Haze
8:54 AM 63.0 °F 57.9 °F 84% 29.94 in 10.0 mi Calm Calm - N/A   Partly Cloudy
9:54 AM 68.0 °F 55.0 °F 63% 29.94 in 10.0 mi West 6.9 mph - N/A   Clear
10:54 AM 72.0 °F 48.9 °F 44% 29.94 in 10.0 mi West 6.9 mph - N/A   Clear
11:54 AM 73.9 °F 43.0 °F 33% 29.91 in 10.0 mi West 12.7 mph - N/A   Clear
12:54 PM 75.0 °F 42.1 °F 31% 29.89 in 10.0 mi West 8.1 mph - N/A   Clear
1:54 PM 77.0 °F 37.0 °F 24% 29.89 in 10.0 mi West 11.5 mph 20.7 mph N/A   Clear
2:54 PM 75.9 °F 34.0 °F 22% 29.89 in 10.0 mi West 15.0 mph - N/A   Clear
3:54 PM 72.0 °F 28.9 °F 20% 29.91 in 10.0 mi NNW 6.9 mph - N/A   Clear
4:54 PM 68.0 °F 28.9 °F 23% 29.91 in 10.0 mi NW 9.2 mph 18.4 mph N/A   Clear
5:54 PM 64.9 °F 28.0 °F 25% 29.94 in 10.0 mi NW 12.7 mph - N/A   Clear
6:54 PM 63.0 °F 28.9 °F 28% 29.95 in 10.0 mi WNW 11.5 mph - N/A   Clear
7:54 PM 60.1 °F 30.9 °F 33% 29.96 in 10.0 mi NW 11.5 mph - N/A   Clear
8:54 PM 57.9 °F 30.9 °F 36% 29.98 in 10.0 mi NW 10.4 mph - N/A   Clear
9:54 PM 57.0 °F 30.9 °F 37% 29.99 in 10.0 mi NW 6.9 mph - N/A   Clear
10:54 PM 55.9 °F 30.9 °F 39% 30.00 in 10.0 mi NNW 8.1 mph - N/A   Clear
11:54 PM 55.0 °F 30.0 °F 38% 30.00 in 10.0 mi NW 6.9 mph - N/A   Clear